The Dalles, WA

12:18 PM PST on February 20, 2018 (GMT -0800)
Columbia Gorge Regional-The Dalles

Weather History for KDLS - March, 2013

Change the Weather History Date:

Sunday, March 10, 2013

  Actual Average Record
Temperature  
Mean Temperature 47 °F -  
Max Temperature 57 °F 56 °F 73 °F (2005)
Min Temperature 37 °F 35 °F 21 °F (1969)
Degree Days  
Heating Degree Days 18    
Moisture  
Dew Point 35 °F    
Average Humidity 62    
Maximum Humidity 77    
Minimum Humidity 44    
Precipitation  
Precipitation 0.00 in - - ()
Sea Level Pressure  
Sea Level Pressure 30.40 in    
Wind  
Wind Speed 7 mph (NW)    
Max Wind Speed 22 mph    
Max Gust Speed 30 mph    
Visibility 10 miles    
Events      
Averages and records for this station are not official NWS values.
T = Trace of Precipitation, MM = Missing Value Source: NWS Daily Summary

Daily Weather History Graph

Daily Weather History Graph

Search for Another Location

Airport or City:

Trip Planner

Search our weather history database for the weather conditions in past years. The results will help you decide how hot, cold, wet, or windy it might be!

Date:

Astronomy

Mar. 10, 2013 Rise Set
Actual Time 7:26 AM PDT 7:04 PM PDT
Civil Twilight 6:56 AM PDT 7:33 PM PDT
Nautical Twilight 6:22 AM PDT 8:08 PM PDT
Astronomical Twilight 5:47 AM PDT 8:43 PM PDT
Moon 6:30 AM PDT (3/10) 6:17 PM PDT (3/10)
Length of Visible Light 12h 37m
Length of Day
11h 38m
Waning Crescent, 1% of the Moon is Illuminated
Mar 10
Waning Crescent
Mar 11
New
Mar 19
First Quarter
Mar 27
Full
Apr 2
Last Quarter

Hourly Weather History & Observations

Time (PDT) Temp. Windchill Dew Point Humidity Pressure Visibility Wind Dir Wind Speed Gust Speed Precip Events Conditions
12:53 AM 46.0 °F 43.9 °F 30.0 °F 54% 30.44 in 10.0 mi NW 4.6 mph - N/A   Clear
1:53 AM 43.0 °F - 30.9 °F 62% 30.44 in 10.0 mi Calm Calm - N/A   Clear
3:53 AM 41.0 °F - 28.9 °F 62% 30.45 in 10.0 mi Calm Calm - N/A   Clear
5:53 AM 37.0 °F 33.3 °F 28.0 °F 70% 30.46 in 10.0 mi East 4.6 mph - N/A   Clear
6:53 AM 37.0 °F 31.6 °F 26.1 °F 65% 30.46 in 10.0 mi ESE 6.9 mph - N/A   Overcast
7:53 AM 37.0 °F 32.4 °F 27.0 °F 67% 30.45 in 10.0 mi SSE 5.8 mph - N/A   Clear
8:53 AM 41.0 °F - 28.9 °F 62% 30.45 in 10.0 mi Calm Calm - N/A   Clear
9:53 AM 46.0 °F - 34.0 °F 63% 30.44 in 10.0 mi Calm Calm - N/A   Partly Cloudy
10:53 AM 46.9 °F - 34.0 °F 61% 30.42 in 10.0 mi Calm Calm - N/A   Clear
11:53 AM 54.0 °F - 36.0 °F 51% 30.39 in 10.0 mi Calm Calm - N/A   Clear
12:53 PM 55.9 °F - 34.0 °F 44% 30.37 in 10.0 mi Calm Calm - N/A   Scattered Clouds
1:53 PM 57.0 °F - 37.0 °F 47% 30.35 in 10.0 mi NW 21.9 mph 29.9 mph N/A   Overcast
2:53 PM 53.1 °F - 37.9 °F 57% 30.34 in 10.0 mi NW 21.9 mph 28.8 mph N/A   Overcast
3:53 PM 54.0 °F - 39.9 °F 59% 30.35 in 10.0 mi NW 21.9 mph 28.8 mph N/A   Overcast
4:53 PM 55.9 °F - 39.9 °F 55% 30.37 in 10.0 mi NNW 17.3 mph 28.8 mph N/A   Overcast
5:53 PM 52.0 °F - 39.0 °F 61% 30.37 in 10.0 mi NW 17.3 mph - N/A   Overcast
6:53 PM 50.0 °F - 39.0 °F 66% 30.36 in 10.0 mi NW 21.9 mph - N/A   Overcast
7:53 PM 50.0 °F - 39.0 °F 66% 30.36 in 10.0 mi NW 17.3 mph - N/A   Clear
8:53 PM 50.0 °F - 39.9 °F 68% 30.37 in 10.0 mi NW 17.3 mph - N/A   Overcast
9:53 PM 48.9 °F - 39.9 °F 71% 30.38 in 10.0 mi NW 12.7 mph - N/A   Overcast
10:53 PM 48.0 °F - 41.0 °F 77% 30.38 in 10.0 mi NNW 13.8 mph - N/A   Overcast
11:53 PM 48.9 °F - 41.0 °F 74% 30.38 in 10.0 mi NW 12.7 mph - N/A   Overcast
12:53 AM 48.9 °F - 41.0 °F 74% 30.38 in 10.0 mi West 5.8 mph - N/A   Overcast